Location: Bamazo
(6.7448°N, 10.8189°W)
Time: 01:06:45
(UTC+00:00)

Palapa 6 Rocket - Pass Details

Date: 18 September 2020
Orbit: 485 x 1217 km, 22.7° (Epoch: 21 October)

Event Time Altitude Azimuth Distance (km) Brightness Sun altitude
Rises 20:17:39 0° 250° (WSW) 2,532 7.3 -24.7°
Reaches altitude 10° 20:19:46 10° 252° (WSW) 1,673 6.1 -25.3°
Enters shadow 20:22:33 48° 265° (W) 673 3.5 -26.0°
